SWR33CD LPPR-LSZH

Flight info

Callsign SWR33CD
Flight time N/A
Altitude 34000
Route BELDU DCT CANAR DCT ADORO/N0484F400 DCT FITSE DCT DGO DCT LPA DCT GOSVI DCT TOPTU DCT TOU/N0487F430 DCT GAI DCT MEN DCT NINUN DCT LATAM DCT ETREK DCT LTP DCT SOPLO DCT OMASI DCT KINNI DCT SOSAL/N0470F320 DCT KORED N871 BERSU
Aircraft A359/H-SDE2E3GHIJ3J4J5LM1ORWXY/LB1D1

Departure

Time N/A
Airport Francisco de Sá Carneiro Airport (LPPR)

Arrival

Time 2026-05-03 21:22
Airport Zürich Airport (LSZH)
Time Latitude Longitude Altitude Speed Heading
2026-05-03 20:15 42.67449 -0.84973 39988 ft 529 kts 77°
2026-05-03 20:15 42.69276 -0.75305 39985 ft 528 kts 77°
2026-05-03 20:16 42.71227 -0.65677 39989 ft 529 kts 71°
2026-05-03 20:16 42.74631 -0.56822 39999 ft 530 kts 57°
2026-05-03 20:17 42.78852 -0.48600 39984 ft 529 kts 53°
2026-05-03 20:17 42.83226 -0.40536 39998 ft 530 kts 53°
2026-05-03 20:18 42.87554 -0.32480 40009 ft 529 kts 53°
2026-05-03 20:18 42.91860 -0.24334 39997 ft 529 kts 54°
2026-05-03 20:19 42.96149 -0.16155 39981 ft 529 kts 54°
2026-05-03 20:19 43.00430 -0.07968 39975 ft 530 kts 54°
2026-05-03 20:20 43.04709 0.00235 39982 ft 529 kts 54°
2026-05-03 20:20 43.08980 0.08443 39993 ft 530 kts 54°
2026-05-03 20:21 43.13222 0.16616 39980 ft 530 kts 54°
2026-05-03 20:21 43.17491 0.24863 39980 ft 530 kts 54°
2026-05-03 20:22 43.21746 0.33106 39969 ft 530 kts 54°
2026-05-03 20:22 43.26001 0.41374 39963 ft 530 kts 54°
2026-05-03 20:23 43.30240 0.49635 39961 ft 528 kts 54°
2026-05-03 20:23 43.34467 0.57893 39961 ft 528 kts 54°
2026-05-03 20:24 43.38689 0.66165 39956 ft 528 kts 54°
2026-05-03 20:24 43.42877 0.74394 39993 ft 528 kts 54°
2026-05-03 20:25 43.47083 0.82680 39954 ft 527 kts 55°
2026-05-03 20:25 43.51268 0.90948 39959 ft 525 kts 55°
2026-05-03 20:26 43.55438 0.99212 39954 ft 525 kts 55°
2026-05-03 20:26 43.59609 1.07499 39974 ft 525 kts 55°
2026-05-03 20:27 43.63770 1.15791 39969 ft 525 kts 55°
2026-05-03 20:27 43.67219 1.22679 39957 ft 523 kts 55°
2026-05-03 20:28 43.72020 1.32297 39970 ft 522 kts 55°
2026-05-03 20:28 43.76139 1.40576 39970 ft 522 kts 56°
2026-05-03 20:29 43.79560 1.47468 39971 ft 522 kts 56°
2026-05-03 20:29 43.83673 1.55775 39964 ft 522 kts 56°
2026-05-03 20:30 43.87770 1.64073 39966 ft 522 kts 56°
2026-05-03 20:30 43.91860 1.72384 39963 ft 521 kts 56°
2026-05-03 20:31 43.95948 1.80712 39960 ft 521 kts 56°
2026-05-03 20:31 44.00025 1.89041 39965 ft 521 kts 56°
2026-05-03 20:32 44.04093 1.97378 39969 ft 522 kts 56°
2026-05-03 20:32 44.08167 2.05749 39972 ft 522 kts 56°
2026-05-03 20:33 44.12208 2.14077 39970 ft 522 kts 56°
2026-05-03 20:33 44.16268 2.22467 39979 ft 522 kts 56°
2026-05-03 20:34 44.20321 2.30868 39984 ft 522 kts 56°
2026-05-03 20:34 44.24365 2.39274 39984 ft 522 kts 56°
2026-05-03 20:35 44.28403 2.47691 39997 ft 522 kts 57°
2026-05-03 20:35 44.32437 2.56125 40021 ft 522 kts 57°
2026-05-03 20:36 44.36462 2.64566 40017 ft 522 kts 57°
2026-05-03 20:36 44.40458 2.72969 40020 ft 521 kts 57°
2026-05-03 20:37 44.44465 2.81420 40021 ft 520 kts 57°
2026-05-03 20:37 44.48464 2.89879 40022 ft 520 kts 57°
2026-05-03 20:38 44.52460 2.98359 40034 ft 521 kts 57°
2026-05-03 20:38 44.56445 3.06837 40030 ft 520 kts 57°
2026-05-03 20:39 44.60418 3.15315 40042 ft 520 kts 57°
2026-05-03 20:39 44.64169 3.23907 40054 ft 519 kts 62°
2026-05-03 20:40 44.67638 3.32818 40054 ft 519 kts 63°
2026-05-03 20:40 44.71104 3.41744 40054 ft 519 kts 62°
2026-05-03 20:41 44.74587 3.50570 40051 ft 519 kts 62°
2026-05-03 20:41 44.78116 3.59445 40055 ft 519 kts 62°
2026-05-03 20:42 44.81633 3.68307 40046 ft 519 kts 62°
2026-05-03 20:42 44.85148 3.77213 40049 ft 519 kts 62°
2026-05-03 20:43 44.88658 3.86135 40048 ft 520 kts 62°
2026-05-03 20:43 44.92160 3.95064 40053 ft 520 kts 62°
2026-05-03 20:44 44.95633 4.03944 40051 ft 520 kts 62°
2026-05-03 20:44 44.99118 4.12885 40053 ft 519 kts 62°
2026-05-03 20:45 45.02596 4.21838 40034 ft 519 kts 62°
2026-05-03 20:45 45.06071 4.30798 40051 ft 519 kts 62°
2026-05-03 20:46 45.09536 4.39778 40043 ft 519 kts 62°
2026-05-03 20:46 45.12985 4.48749 40048 ft 518 kts 62°
2026-05-03 20:47 45.16408 4.57675 40043 ft 519 kts 62°
2026-05-03 20:47 45.19850 4.66675 40040 ft 518 kts 62°
2026-05-03 20:48 45.23284 4.75683 40035 ft 518 kts 62°
2026-05-03 20:48 45.26677 4.84624 40041 ft 518 kts 62°
2026-05-03 20:49 45.30085 4.93629 40047 ft 518 kts 62°
2026-05-03 20:49 45.33489 5.02654 40055 ft 518 kts 63°
2026-05-03 20:50 45.36886 5.11688 40066 ft 518 kts 62°
2026-05-03 20:50 45.40275 5.20730 40074 ft 518 kts 62°
2026-05-03 20:51 45.43657 5.29782 40075 ft 518 kts 63°
2026-05-03 20:51 45.47044 5.38831 40072 ft 518 kts 60°
2026-05-03 20:52 45.51387 5.46883 40062 ft 518 kts 44°
2026-05-03 20:52 45.56638 5.53925 40057 ft 517 kts 41°
2026-05-03 20:53 45.62030 5.60752 40047 ft 517 kts 40°
2026-05-03 20:53 45.67420 5.67572 40044 ft 517 kts 40°
2026-05-03 20:54 45.72788 5.74437 40052 ft 518 kts 41°
2026-05-03 20:54 45.80835 5.84774 40063 ft 518 kts 41°
2026-05-03 20:55 45.86192 5.91682 40065 ft 517 kts 41°
2026-05-03 20:55 45.91539 5.98593 40076 ft 517 kts 41°
2026-05-03 20:56 45.96842 6.05459 40076 ft 517 kts 41°
2026-05-03 20:56 46.02184 6.12404 40081 ft 517 kts 41°
2026-05-03 20:57 46.07514 6.19350 40069 ft 517 kts 41°
2026-05-03 20:57 46.12791 6.26420 40069 ft 517 kts 43°
2026-05-03 20:58 46.17862 6.33713 40069 ft 517 kts 44°
2026-05-03 20:58 46.22943 6.41076 40059 ft 517 kts 44°
2026-05-03 20:59 46.28046 6.48415 40061 ft 516 kts 44°
2026-05-03 20:59 46.33150 6.55728 40053 ft 516 kts 44°
2026-05-03 21:00 46.36533 6.60582 40055 ft 516 kts 44°
2026-05-03 21:00 46.43349 6.70389 40054 ft 516 kts 44°
2026-05-03 21:01 46.48433 6.77733 40055 ft 516 kts 44°
2026-05-03 21:01 46.53476 6.85038 40057 ft 515 kts 44°
2026-05-03 21:02 46.58236 6.92771 39464 ft 511 kts 50°
2026-05-03 21:02 46.60506 6.96775 38642 ft 515 kts 50°
2026-05-03 21:02 46.62775 7.00851 37604 ft 519 kts 51°
2026-05-03 21:03 46.65043 7.04962 36698 ft 522 kts 51°
2026-05-03 21:03 46.67318 7.09097 35757 ft 524 kts 51°
2026-05-03 21:03 46.69599 7.13246 34855 ft 526 kts 51°
2026-05-03 21:03 46.71890 7.17409 33953 ft 528 kts 51°
2026-05-03 21:04 46.74192 7.21592 32947 ft 529 kts 51°
2026-05-03 21:04 46.76500 7.25786 31948 ft 530 kts 51°
2026-05-03 21:04 46.78811 7.29992 30987 ft 530 kts 51°
2026-05-03 21:04 46.81091 7.34148 30097 ft 530 kts 51°
2026-05-03 21:05 46.83383 7.38330 29227 ft 525 kts 51°
2026-05-03 21:05 46.85645 7.42464 28350 ft 513 kts 51°
2026-05-03 21:05 46.87856 7.46515 26880 ft 504 kts 51°
2026-05-03 21:05 46.90028 7.50509 25337 ft 499 kts 51°
2026-05-03 21:06 46.92171 7.54457 23946 ft 493 kts 51°
2026-05-03 21:06 46.94274 7.58337 22478 ft 485 kts 51°
2026-05-03 21:06 46.96351 7.62176 21136 ft 473 kts 51°
2026-05-03 21:06 46.98364 7.65902 19933 ft 460 kts 51°
2026-05-03 21:07 47.00300 7.69486 19257 ft 436 kts 51°
2026-05-03 21:07 47.02134 7.72880 18681 ft 413 kts 51°
2026-05-03 21:07 47.03859 7.76079 18080 ft 399 kts 51°
2026-05-03 21:07 47.05572 7.79257 17504 ft 396 kts 51°
2026-05-03 21:08 47.07275 7.82420 16931 ft 393 kts 51°
2026-05-03 21:08 47.08965 7.85563 16390 ft 391 kts 52°
2026-05-03 21:08 47.10642 7.88685 15806 ft 388 kts 52°
2026-05-03 21:08 47.12319 7.91811 15253 ft 390 kts 52°
2026-05-03 21:09 47.13830 7.95089 14687 ft 387 kts 61°
2026-05-03 21:09 47.15034 7.98608 14117 ft 383 kts 65°
2026-05-03 21:09 47.16158 8.02135 13532 ft 380 kts 65°
2026-05-03 21:09 47.17266 8.05636 12952 ft 375 kts 65°
2026-05-03 21:10 47.18364 8.09095 12392 ft 370 kts 65°
2026-05-03 21:10 47.19449 8.12509 11858 ft 367 kts 66°
2026-05-03 21:10 47.20519 8.15847 11333 ft 363 kts 64°
2026-05-03 21:10 47.21927 8.18810 11178 ft 347 kts 45°
2026-05-03 21:11 47.23886 8.20717 11051 ft 329 kts 20°
2026-05-03 21:11 47.26061 8.21335 10913 ft 311 kts 358°
2026-05-03 21:11 47.28117 8.20791 10785 ft 292 kts 337°
2026-05-03 21:11 47.29928 8.19597 10650 ft 280 kts 330°
2026-05-03 21:12 47.31649 8.18298 10497 ft 277 kts 328°
2026-05-03 21:12 47.33354 8.16995 10222 ft 275 kts 328°
2026-05-03 21:12 47.35061 8.15698 9909 ft 277 kts 328°
2026-05-03 21:12 47.36828 8.14359 9773 ft 291 kts 329°
2026-05-03 21:13 47.38631 8.13002 9536 ft 289 kts 329°
2026-05-03 21:13 47.40407 8.11669 9042 ft 290 kts 329°
2026-05-03 21:13 47.42207 8.10320 8654 ft 289 kts 330°
2026-05-03 21:13 47.43998 8.08979 8346 ft 288 kts 330°
2026-05-03 21:14 47.45183 8.08094 8124 ft 287 kts 330°
2026-05-03 21:14 47.46988 8.06853 7813 ft 287 kts 338°
2026-05-03 21:14 47.48971 8.06463 7492 ft 290 kts
2026-05-03 21:14 47.50857 8.07446 7180 ft 290 kts 33°
2026-05-03 21:15 47.52224 8.09584 6864 ft 288 kts 59°
2026-05-03 21:15 47.53124 8.12247 6473 ft 289 kts 67°
2026-05-03 21:15 47.53918 8.14968 6121 ft 288 kts 68°
2026-05-03 21:15 47.54704 8.17678 5804 ft 286 kts 68°
2026-05-03 21:16 47.55497 8.20370 5513 ft 283 kts 67°
2026-05-03 21:16 47.56276 8.22983 5375 ft 271 kts 67°
2026-05-03 21:16 47.57022 8.25474 5233 ft 259 kts 66°
2026-05-03 21:16 47.57739 8.27865 5101 ft 249 kts 66°
2026-05-03 21:17 47.58429 8.30162 4955 ft 239 kts 66°
2026-05-03 21:17 47.59081 8.32332 4829 ft 228 kts 66°
2026-05-03 21:17 47.59705 8.34432 4707 ft 216 kts 68°
2026-05-03 21:17 47.59811 8.36515 4624 ft 197 kts 107°
2026-05-03 21:18 47.59253 8.38303 4444 ft 188 kts 122°
2026-05-03 21:18 47.58418 8.39750 4174 ft 183 kts 141°
2026-05-03 21:18 47.57451 8.40961 3901 ft 181 kts 140°
2026-05-03 21:18 47.56538 8.42237 3644 ft 178 kts 138°
2026-05-03 21:19 47.55654 8.43460 3416 ft 169 kts 139°
2026-05-03 21:19 47.54810 8.44608 3206 ft 160 kts 140°
2026-05-03 21:19 47.54019 8.45687 2987 ft 149 kts 140°
2026-05-03 21:19 47.53282 8.46695 2801 ft 141 kts 139°
2026-05-03 21:20 47.52570 8.47667 2616 ft 138 kts 139°
2026-05-03 21:20 47.51863 8.48632 2380 ft 137 kts 138°
2026-05-03 21:20 47.51156 8.49582 2208 ft 137 kts 138°
2026-05-03 21:20 47.50461 8.50535 2026 ft 136 kts 137°
2026-05-03 21:21 47.49764 8.51493 1809 ft 136 kts 137°
2026-05-03 21:21 47.49083 8.52422 1628 ft 135 kts 137°
2026-05-03 21:21 47.48398 8.53358 1479 ft 136 kts 136°
2026-05-03 21:21 47.47725 8.54271 1411 ft 126 kts 140°
2026-05-03 21:22 47.47259 8.54904 1404 ft 52 kts 137°
2026-05-03 21:22 47.47041 8.55203 1405 ft 48 kts 137°
2026-05-03 21:22 47.46761 8.55579 1410 ft 58 kts 143°
2026-05-03 21:22 47.46428 8.55734 1404 ft 22 kts 163°
2026-05-03 21:23 47.46404 8.55746 1411 ft 4 kts 160°
2026-05-03 21:23 47.46361 8.55785 1414 ft 10 kts 143°
2026-05-03 21:23 47.46297 8.55877 1417 ft 15 kts 137°
2026-05-03 21:23 47.46232 8.55836 1418 ft 12 kts 260°
2026-05-03 21:24 47.46215 8.55787 1414 ft 1 kts 192°
2026-05-03 21:24 47.46204 8.55786 1418 ft 3 kts 185°
2026-05-03 21:24 47.46176 8.55782 1417 ft 5 kts 185°
2026-05-03 21:24 47.46156 8.55779 1414 ft 0 kts 186°